Time,TemperatureF,DewpointF,PressureIn,WindDirection,WindDirectionDegrees,WindSpeedMPH,WindSpeedGustMPH,Humidity,HourlyPrecipIn,Conditions,Clouds,dailyrainin,SoftwareType,DateUTC
2013-04-04 00:03:00,55.4,26.4,30.10,SSW,200,15.0,18.0,32,0.00,,---,0.00,VWS V14.00,2013-04-04 07:03:00,
2013-04-04 00:12:00,55.7,25.9,30.10,SSW,200,11.0,16.0,32,0.00,,---,0.00,VWS V14.00,2013-04-04 07:12:00,
2013-04-04 00:17:00,55.5,25.8,30.10,SSW,200,11.0,16.0,32,0.00,,---,0.00,VWS V14.00,2013-04-04 07:17:00,
2013-04-04 00:27:00,55.7,24.4,30.10,SSW,200,7.0,12.0,30,0.00,,---,0.00,VWS V14.00,2013-04-04 07:27:00,
2013-04-04 00:32:00,55.5,25.0,30.10,SSW,200,6.0,9.0,30,0.00,,---,0.00,VWS V14.00,2013-04-04 07:32:00,
2013-04-04 00:37:00,55.1,25.4,30.10,SSW,200,6.0,9.0,32,0.00,,---,0.00,VWS V14.00,2013-04-04 07:37:00,
2013-04-04 00:42:00,54.7,24.3,30.10,SSW,200,0.0,6.0,30,0.00,,---,0.00,VWS V14.00,2013-04-04 07:42:00,
2013-04-04 00:52:00,54.6,25.0,30.10,SSW,200,0.0,0.0,32,0.00,,---,0.00,VWS V14.00,2013-04-04 07:52:00,
2013-04-04 01:02:00,53.7,25.7,30.10,SSW,200,0.0,0.0,34,0.00,,---,0.00,VWS V14.00,2013-04-04 08:02:00,
2013-04-04 01:07:00,53.0,25.8,30.10,SSW,200,0.0,0.0,34,0.00,,---,0.00,VWS V14.00,2013-04-04 08:07:00,
2013-04-04 01:12:00,52.1,25.6,30.10,SSW,200,0.0,0.0,36,0.00,,---,0.00,VWS V14.00,2013-04-04 08:12:00,
2013-04-04 01:17:00,52.0,24.9,30.10,SSW,200,0.0,6.0,34,0.00,,---,0.00,VWS V14.00,2013-04-04 08:17:00,
2013-04-04 01:27:00,53.2,24.5,30.09,SSW,200,5.0,9.0,32,0.00,,---,0.00,VWS V14.00,2013-04-04 08:27:00,
2013-04-04 01:32:00,53.3,24.6,30.09,SSW,200,1.0,7.0,32,0.00,,---,0.00,VWS V14.00,2013-04-04 08:32:00,
2013-04-04 01:37:00,53.4,23.9,30.09,SSW,200,1.0,7.0,32,0.00,,---,0.00,VWS V14.00,2013-04-04 08:37:00,
2013-04-04 01:42:00,53.6,24.1,30.09,SSW,200,0.0,6.0,32,0.00,,---,0.00,VWS V14.00,2013-04-04 08:42:00,
2013-04-04 01:47:00,53.7,24.2,30.09,SSW,200,0.0,0.0,32,0.00,,---,0.00,VWS V14.00,2013-04-04 08:47:00,
2013-04-04 01:52:00,53.5,24.0,30.09,SSW,200,0.0,0.0,32,0.00,,---,0.00,VWS V14.00,2013-04-04 08:52:00,
2013-04-04 01:57:00,53.2,23.8,30.09,SSW,200,0.0,0.0,32,0.00,,---,0.00,VWS V14.00,2013-04-04 08:57:00,
2013-04-04 02:02:00,53.0,23.6,30.09,SSW,200,0.0,0.0,32,0.00,,---,0.00,VWS V14.00,2013-04-04 09:02:00,
2013-04-04 02:07:00,53.1,23.7,30.09,SSW,200,0.0,0.0,32,0.00,,---,0.00,VWS V14.00,2013-04-04 09:07:00,
2013-04-04 02:12:00,51.6,24.5,30.08,SSW,200,0.0,0.0,34,0.00,,---,0.00,VWS V14.00,2013-04-04 09:12:00,
2013-04-04 02:17:00,49.2,25.6,30.08,SSW,200,0.0,0.0,40,0.00,,---,0.00,VWS V14.00,2013-04-04 09:17:00,
2013-04-04 02:22:00,48.9,24.7,30.08,SSW,200,0.0,0.0,38,0.00,,---,0.00,VWS V14.00,2013-04-04 09:22:00,
2013-04-04 02:32:00,51.8,24.0,30.07,SSW,200,0.0,6.0,34,0.00,,---,0.00,VWS V14.00,2013-04-04 09:32:00,
2013-04-04 02:37:00,52.3,23.7,30.07,SSW,200,0.0,1.0,32,0.00,,---,0.00,VWS V14.00,2013-04-04 09:37:00,
2013-04-04 02:47:00,51.0,24.0,30.07,SSW,200,0.0,0.0,34,0.00,,---,0.00,VWS V14.00,2013-04-04 09:47:00,
2013-04-04 02:52:00,51.2,24.2,30.07,SSW,200,0.0,0.0,34,0.00,,---,0.00,VWS V14.00,2013-04-04 09:52:00,
2013-04-04 02:57:00,50.6,25.0,30.07,SSW,200,0.0,0.0,36,0.00,,---,0.00,VWS V14.00,2013-04-04 09:57:00,
2013-04-04 03:02:00,49.7,24.8,30.07,SSW,200,0.0,0.0,38,0.00,,---,0.00,VWS V14.00,2013-04-04 10:02:00,
2013-04-04 03:07:00,49.7,24.2,30.07,SSW,200,0.0,2.0,36,0.00,,---,0.00,VWS V14.00,2013-04-04 10:07:00,
2013-04-04 03:17:00,48.9,24.7,30.06,SSW,200,0.0,3.0,38,0.00,,---,0.00,VWS V14.00,2013-04-04 10:17:00,
2013-04-04 03:23:00,48.3,24.2,30.06,SSW,200,0.0,1.0,38,0.00,,---,0.00,VWS V14.00,2013-04-04 10:23:00,
2013-04-04 03:32:00,48.1,23.4,30.06,SSW,200,0.0,0.0,38,0.00,,---,0.00,VWS V14.00,2013-04-04 10:32:00,
2013-04-04 03:37:00,49.5,24.0,30.06,SSW,200,0.0,2.0,36,0.00,,---,0.00,VWS V14.00,2013-04-04 10:37:00,
2013-04-04 03:42:00,50.5,24.2,30.05,SSW,200,7.0,10.0,36,0.00,,---,0.00,VWS V14.00,2013-04-04 10:42:00,
2013-04-04 03:47:00,52.0,24.2,30.05,SSW,200,2.0,13.0,34,0.00,,---,0.00,VWS V14.00,2013-04-04 10:47:00,
2013-04-04 03:52:00,52.1,24.2,30.05,SSW,200,7.0,10.0,34,0.00,,---,0.00,VWS V14.00,2013-04-04 10:52:00,
2013-04-04 03:57:00,51.7,24.6,30.05,SSW,200,6.0,11.0,34,0.00,,---,0.00,VWS V14.00,2013-04-04 10:57:00,
2013-04-04 04:02:00,51.8,24.7,30.05,SSW,200,8.0,12.0,34,0.00,,---,0.00,VWS V14.00,2013-04-04 11:02:00,
2013-04-04 04:12:00,52.5,24.6,30.05,SSW,200,10.0,16.0,34,0.00,,---,0.00,VWS V14.00,2013-04-04 11:12:00,
2013-04-04 04:17:00,52.9,25.0,30.05,SSW,200,11.0,20.0,34,0.00,,---,0.00,VWS V14.00,2013-04-04 11:17:00,
2013-04-04 04:22:00,52.9,25.7,30.05,SSW,200,11.0,18.0,34,0.00,,---,0.00,VWS V14.00,2013-04-04 11:22:00,
2013-04-04 04:27:00,53.0,25.8,30.05,SSW,200,7.0,15.0,34,0.00,,---,0.00,VWS V14.00,2013-04-04 11:27:00,
2013-04-04 04:32:00,53.4,26.1,30.04,SSW,200,7.0,15.0,34,0.00,,---,0.00,VWS V14.00,2013-04-04 11:32:00,
2013-04-04 04:37:00,53.8,25.8,30.04,SSW,202,11.0,19.0,34,0.00,,---,0.00,VWS V14.00,2013-04-04 11:37:00,
2013-04-04 04:42:00,54.4,26.3,30.04,SSW,205,15.0,19.0,34,0.00,,---,0.00,VWS V14.00,2013-04-04 11:42:00,
2013-04-04 04:47:00,55.0,26.8,30.04,SSW,207,12.0,21.0,34,0.00,,---,0.00,VWS V14.00,2013-04-04 11:47:00,
2013-04-04 04:52:00,55.0,26.1,30.04,SSW,212,14.0,20.0,32,0.00,,---,0.00,VWS V14.00,2013-04-04 11:52:00,
2013-04-04 04:57:00,55.0,26.1,30.04,SSW,213,13.0,18.0,32,0.00,,---,0.00,VWS V14.00,2013-04-04 11:57:00,
2013-04-04 05:02:00,54.7,26.5,30.04,SSW,213,13.0,18.0,34,0.00,,---,0.00,VWS V14.00,2013-04-04 12:02:00,
2013-04-04 05:07:00,54.4,26.3,30.04,SSW,210,9.0,19.0,34,0.00,,---,0.00,VWS V14.00,2013-04-04 12:07:00,
2013-04-04 05:12:00,54.3,26.2,30.04,SSW,211,10.0,15.0,34,0.00,,---,0.00,VWS V14.00,2013-04-04 12:12:00,
2013-04-04 05:17:00,54.3,26.2,30.04,SSW,211,11.0,16.0,34,0.00,,---,0.00,VWS V14.00,2013-04-04 12:17:00,
2013-04-04 05:22:00,54.4,26.3,30.04,SSW,209,11.0,19.0,34,0.00,,---,0.00,VWS V14.00,2013-04-04 12:22:00,
2013-04-04 05:27:00,54.2,26.1,30.04,SSW,209,14.0,15.0,34,0.00,,---,0.00,VWS V14.00,2013-04-04 12:27:00,
2013-04-04 05:33:00,53.8,26.5,30.04,SSW,209,10.0,14.0,34,0.00,,---,0.00,VWS V14.00,2013-04-04 12:33:00,
2013-04-04 05:43:00,53.7,26.4,30.04,SSW,209,7.0,14.0,34,0.00,,---,0.00,VWS V14.00,2013-04-04 12:43:00,
2013-04-04 05:52:00,53.5,26.2,30.04,SSW,209,8.0,15.0,34,0.00,,---,0.00,VWS V14.00,2013-04-04 12:52:00,
2013-04-04 05:57:00,53.3,26.7,30.04,SSW,209,9.0,12.0,36,0.00,,---,0.00,VWS V14.00,2013-04-04 12:57:00,
2013-04-04 06:07:00,53.1,26.5,30.04,SSW,209,9.0,13.0,36,0.00,,---,0.00,VWS V14.00,2013-04-04 13:07:00,
2013-04-04 06:12:00,52.8,26.9,30.04,SSW,209,9.0,13.0,36,0.00,,---,0.00,VWS V14.00,2013-04-04 13:12:00,
2013-04-04 06:17:00,52.3,26.5,30.04,SSW,209,8.0,11.0,36,0.00,,---,0.00,VWS V14.00,2013-04-04 13:17:00,
2013-04-04 06:27:00,51.7,26.6,30.04,SSW,209,9.0,10.0,38,0.00,,---,0.00,VWS V14.00,2013-04-04 13:27:00,
2013-04-04 06:32:00,51.9,26.8,30.04,SSW,209,6.0,10.0,38,0.00,,---,0.00,VWS V14.00,2013-04-04 13:32:00,
2013-04-04 06:37:00,51.8,26.7,30.04,SSW,209,7.0,9.0,38,0.00,,---,0.00,VWS V14.00,2013-04-04 13:37:00,
2013-04-04 06:42:00,51.9,27.4,30.04,SSW,209,6.0,10.0,38,0.00,,---,0.00,VWS V14.00,2013-04-04 13:42:00,
2013-04-04 06:47:00,52.0,27.5,30.04,SSW,209,5.0,10.0,38,0.00,,---,0.00,VWS V14.00,2013-04-04 13:47:00,
2013-04-04 06:52:00,52.0,27.5,30.04,SSW,209,6.0,8.0,38,0.00,,---,0.00,VWS V14.00,2013-04-04 13:52:00,
2013-04-04 06:57:00,52.0,27.5,30.04,SSW,209,2.0,8.0,38,0.00,,---,0.00,VWS V14.00,2013-04-04 13:57:00,
2013-04-04 07:02:00,52.1,28.2,30.04,SSW,209,6.0,8.0,40,0.00,,---,0.00,VWS V14.00,2013-04-04 14:02:00,
2013-04-04 07:07:00,51.9,28.0,30.04,SSW,209,6.0,8.0,40,0.00,,---,0.00,VWS V14.00,2013-04-04 14:07:00,
2013-04-04 07:17:00,51.3,28.1,30.05,SSW,209,2.0,8.0,40,0.00,,---,0.00,VWS V14.00,2013-04-04 14:17:00,
2013-04-04 07:22:00,50.8,28.3,30.05,SSW,209,5.0,7.0,42,0.00,,---,0.00,VWS V14.00,2013-04-04 14:22:00,
2013-04-04 07:32:00,50.1,28.2,30.05,SSW,209,7.0,9.0,42,0.00,,---,0.00,VWS V14.00,2013-04-04 14:32:00,
2013-04-04 07:37:00,50.1,28.8,30.05,SSW,209,9.0,9.0,44,0.00,,---,0.00,VWS V14.00,2013-04-04 14:37:00,
2013-04-04 07:43:00,50.1,29.3,30.05,SSW,209,4.0,11.0,44,0.00,,---,0.00,VWS V14.00,2013-04-04 14:43:00,
2013-04-04 07:52:00,51.0,31.2,30.05,SSW,209,7.0,14.0,46,0.00,,---,0.00,VWS V14.00,2013-04-04 14:52:00,
2013-04-04 07:57:00,51.6,31.8,30.04,SSW,209,10.0,16.0,46,0.00,,---,0.00,VWS V14.00,2013-04-04 14:57:00,
2013-04-04 08:02:00,52.2,32.3,30.05,SSW,209,13.0,20.0,46,0.00,,---,0.00,VWS V14.00,2013-04-04 15:02:00,
2013-04-04 08:07:00,52.7,32.8,30.04,SW,215,19.0,21.0,46,0.00,,---,0.00,VWS V14.00,2013-04-04 15:07:00,
2013-04-04 08:12:00,53.1,33.2,30.04,SW,219,13.0,26.0,46,0.00,,---,0.00,VWS V14.00,2013-04-04 15:12:00,
2013-04-04 08:17:00,53.3,33.3,30.04,SW,220,20.0,23.0,46,0.00,,---,0.00,VWS V14.00,2013-04-04 15:17:00,
2013-04-04 08:23:00,53.2,33.2,30.04,SW,217,21.0,25.0,46,0.00,,---,0.00,VWS V14.00,2013-04-04 15:23:00,
2013-04-04 08:28:00,53.3,34.4,30.05,SW,219,23.0,23.0,48,0.00,,---,0.00,VWS V14.00,2013-04-04 15:28:00,
2013-04-04 08:33:00,53.5,34.6,30.05,SSW,207,25.0,29.0,48,0.00,,---,0.00,VWS V14.00,2013-04-04 15:33:00,
2013-04-04 08:42:00,53.3,34.4,30.05,SW,225,22.0,25.0,48,0.00,,---,0.00,VWS V14.00,2013-04-04 15:42:00,
2013-04-04 08:47:00,53.5,34.6,30.05,SW,227,27.0,27.0,48,0.00,,---,0.00,VWS V14.00,2013-04-04 15:47:00,
2013-04-04 08:52:00,53.9,34.4,30.05,SW,226,28.0,32.0,48,0.00,,---,0.00,VWS V14.00,2013-04-04 15:52:00,
2013-04-04 08:57:00,54.0,34.0,30.05,SW,234,27.0,32.0,46,0.00,,---,0.00,VWS V14.00,2013-04-04 15:57:00,
2013-04-04 09:02:00,53.5,34.6,30.05,SW,222,25.0,30.0,48,0.00,,---,0.00,VWS V14.00,2013-04-04 16:02:00,
2013-04-04 09:07:00,53.3,34.9,30.06,SW,218,23.0,28.0,50,0.00,,---,0.00,VWS V14.00,2013-04-04 16:07:00,
2013-04-04 09:12:00,53.7,35.3,30.06,SW,220,21.0,32.0,50,0.00,,---,0.00,VWS V14.00,2013-04-04 16:12:00,
2013-04-04 09:17:00,54.3,35.3,30.06,SW,227,16.0,31.0,48,0.00,,---,0.00,VWS V14.00,2013-04-04 16:17:00,
2013-04-04 09:23:00,54.8,35.2,30.06,SW,222,20.0,32.0,48,0.00,,---,0.00,VWS V14.00,2013-04-04 16:23:00,
2013-04-04 09:32:00,54.1,35.1,30.07,SW,218,23.0,26.0,48,0.00,,---,0.00,VWS V14.00,2013-04-04 16:32:00,
2013-04-04 09:42:00,55.0,35.4,30.07,SW,214,24.0,29.0,48,0.00,,---,0.00,VWS V14.00,2013-04-04 16:42:00,
2013-04-04 09:48:00,54.3,35.3,30.08,SSW,209,27.0,29.0,48,0.00,,---,0.00,VWS V14.00,2013-04-04 16:48:00,
2013-04-04 09:57:00,53.3,34.9,30.08,SW,215,14.0,28.0,50,0.00,,---,0.00,VWS V14.00,2013-04-04 16:57:00,
2013-04-04 10:07:00,53.5,35.1,30.08,SSW,200,15.0,32.0,50,0.00,,---,0.00,VWS V14.00,2013-04-04 17:07:00,
2013-04-04 10:12:00,53.8,35.4,30.08,South,190,27.0,29.0,50,0.00,,---,0.00,VWS V14.00,2013-04-04 17:12:00,
2013-04-04 10:22:00,55.0,35.4,30.07,SSW,198,26.0,36.0,48,0.00,,---,0.00,VWS V14.00,2013-04-04 17:22:00,
2013-04-04 10:27:00,56.1,35.9,30.07,South,177,23.0,31.0,46,0.00,,---,0.00,VWS V14.00,2013-04-04 17:27:00,
2013-04-04 10:32:00,55.0,35.4,30.07,SSW,193,32.0,34.0,48,0.00,,---,0.00,VWS V14.00,2013-04-04 17:32:00,
2013-04-04 10:42:00,54.4,34.9,30.08,SSW,206,23.0,35.0,48,0.00,,---,0.00,VWS V14.00,2013-04-04 17:42:00,
2013-04-04 10:47:00,54.5,35.0,30.07,SSW,200,22.0,33.0,48,0.00,,---,0.00,VWS V14.00,2013-04-04 17:47:00,
2013-04-04 10:52:00,54.4,34.9,30.08,SSW,194,25.0,34.0,48,0.00,,---,0.00,VWS V14.00,2013-04-04 17:52:00,
2013-04-04 10:57:00,54.1,35.1,30.08,SSW,199,21.0,33.0,48,0.00,,---,0.00,VWS V14.00,2013-04-04 17:57:00,
2013-04-04 11:02:00,53.6,34.1,30.08,SSW,211,21.0,32.0,48,0.00,,---,0.00,VWS V14.00,2013-04-04 18:02:00,
2013-04-04 11:07:00,53.6,34.7,30.08,SSW,201,15.0,34.0,48,0.00,,---,0.00,VWS V14.00,2013-04-04 18:07:00,
2013-04-04 11:12:00,54.1,34.6,30.08,SSW,198,28.0,34.0,48,0.00,,---,0.00,VWS V14.00,2013-04-04 18:12:00,
2013-04-04 11:17:00,54.0,35.5,30.08,SSW,203,25.0,34.0,50,0.00,,---,0.00,VWS V14.00,2013-04-04 18:17:00,
2013-04-04 11:22:00,53.9,34.4,30.08,SSW,211,22.0,31.0,48,0.00,,---,0.00,VWS V14.00,2013-04-04 18:22:00,
2013-04-04 11:27:00,54.0,34.5,30.08,SSW,200,35.0,38.0,48,0.00,,---,0.00,VWS V14.00,2013-04-04 18:27:00,
2013-04-04 11:32:00,54.5,34.4,30.08,SSW,194,18.0,35.0,46,0.00,,---,0.00,VWS V14.00,2013-04-04 18:32:00,
2013-04-04 11:37:00,54.6,34.0,30.07,SSW,192,24.0,35.0,46,0.00,,---,0.00,VWS V14.00,2013-04-04 18:37:00,
2013-04-04 11:48:00,53.9,33.9,30.08,SSW,192,30.0,34.0,46,0.00,,---,0.00,VWS V14.00,2013-04-04 18:48:00,
2013-04-04 11:57:00,53.8,33.8,30.07,South,186,34.0,35.0,46,0.00,,---,0.00,VWS V14.00,2013-04-04 18:57:00,
2013-04-04 12:02:00,53.3,33.9,30.07,SSW,196,21.0,37.0,48,0.00,,---,0.00,VWS V14.00,2013-04-04 19:02:00,
2013-04-04 12:07:00,53.5,34.0,30.08,SSW,197,23.0,32.0,48,0.00,,---,0.00,VWS V14.00,2013-04-04 19:07:00,
2013-04-04 12:12:00,54.2,34.2,30.07,SSW,200,22.0,31.0,46,0.00,,---,0.00,VWS V14.00,2013-04-04 19:12:00,
2013-04-04 12:17:00,54.4,34.3,30.08,South,188,16.0,31.0,46,0.00,,---,0.00,VWS V14.00,2013-04-04 19:17:00,
2013-04-04 12:22:00,54.9,34.8,30.07,SSW,196,18.0,32.0,46,0.00,,---,0.00,VWS V14.00,2013-04-04 19:22:00,
2013-04-04 12:27:00,55.0,34.3,30.08,SSW,192,20.0,35.0,46,0.00,,---,0.00,VWS V14.00,2013-04-04 19:27:00,
2013-04-04 12:32:00,55.3,34.6,30.08,South,190,23.0,32.0,46,0.00,,---,0.00,VWS V14.00,2013-04-04 19:32:00,
2013-04-04 12:37:00,56.4,36.2,30.07,SSW,193,12.0,28.0,46,0.00,,---,0.00,VWS V14.00,2013-04-04 19:37:00,
2013-04-04 12:42:00,57.5,35.5,30.07,SSW,192,23.0,30.0,44,0.00,,---,0.00,VWS V14.00,2013-04-04 19:42:00,
2013-04-04 12:47:00,57.8,36.3,30.07,SSW,196,29.0,31.0,44,0.00,,---,0.00,VWS V14.00,2013-04-04 19:47:00,
2013-04-04 12:52:00,57.7,35.7,30.07,South,188,29.0,33.0,44,0.00,,---,0.00,VWS V14.00,2013-04-04 19:52:00,
2013-04-04 12:57:00,57.7,35.7,30.06,South,186,24.0,33.0,44,0.00,,---,0.00,VWS V14.00,2013-04-04 19:57:00,
2013-04-04 13:02:00,57.8,35.2,30.06,SSW,196,20.0,33.0,42,0.00,,---,0.00,VWS V14.00,2013-04-04 20:02:00,
2013-04-04 13:12:00,58.2,33.7,30.06,SW,219,21.0,41.0,40,0.00,,---,0.00,VWS V14.00,2013-04-04 20:12:00,
2013-04-04 13:17:00,58.4,33.9,30.05,South,173,26.0,36.0,40,0.00,,---,0.00,VWS V14.00,2013-04-04 20:17:00,
2013-04-04 13:22:00,58.5,34.0,30.05,South,180,29.0,42.0,40,0.00,,---,0.00,VWS V14.00,2013-04-04 20:22:00,
2013-04-04 13:27:00,58.4,33.2,30.05,SSW,197,20.0,41.0,38,0.00,,---,0.00,VWS V14.00,2013-04-04 20:27:00,
2013-04-04 13:32:00,59.0,32.5,30.05,SW,219,30.0,38.0,36,0.00,,---,0.00,VWS V14.00,2013-04-04 20:32:00,
2013-04-04 13:42:00,59.0,32.5,30.04,SSW,210,28.0,37.0,36,0.00,,---,0.00,VWS V14.00,2013-04-04 20:42:00,
2013-04-04 13:47:00,59.4,32.8,30.05,South,191,25.0,34.0,36,0.00,,---,0.00,VWS V14.00,2013-04-04 20:47:00,
2013-04-04 13:57:00,59.3,32.0,30.04,South,190,33.0,34.0,36,0.00,,---,0.00,VWS V14.00,2013-04-04 20:57:00,
2013-04-04 14:02:00,59.0,31.8,30.05,South,186,34.0,40.0,36,0.00,,---,0.00,VWS V14.00,2013-04-04 21:02:00,
2013-04-04 14:07:00,59.0,31.8,30.05,South,184,25.0,39.0,36,0.00,,---,0.00,VWS V14.00,2013-04-04 21:07:00,
2013-04-04 14:12:00,59.9,31.1,30.05,SW,222,27.0,34.0,34,0.00,,---,0.00,VWS V14.00,2013-04-04 21:12:00,
2013-04-04 14:17:00,60.1,31.3,30.05,SSW,194,23.0,32.0,34,0.00,,---,0.00,VWS V14.00,2013-04-04 21:17:00,
2013-04-04 14:22:00,59.1,31.1,30.05,South,184,29.0,35.0,34,0.00,,---,0.00,VWS V14.00,2013-04-04 21:22:00,
2013-04-04 14:28:00,59.5,32.2,30.05,SSW,200,20.0,35.0,36,0.00,,---,0.00,VWS V14.00,2013-04-04 21:28:00,
2013-04-04 14:37:00,60.4,33.0,30.05,SSW,195,19.0,27.0,36,0.00,,---,0.00,VWS V14.00,2013-04-04 21:37:00,
2013-04-04 14:42:00,60.2,32.8,30.05,SSW,196,16.0,27.0,36,0.00,,---,0.00,VWS V14.00,2013-04-04 21:42:00,
2013-04-04 14:52:00,59.6,33.0,30.05,SSW,201,13.0,26.0,36,0.00,,---,0.00,VWS V14.00,2013-04-04 21:52:00,
2013-04-04 14:57:00,59.6,33.7,30.05,South,187,26.0,28.0,38,0.00,,---,0.00,VWS V14.00,2013-04-04 21:57:00,
2013-04-04 15:02:00,59.5,33.6,30.05,SSW,209,23.0,29.0,38,0.00,,---,0.00,VWS V14.00,2013-04-04 22:02:00,
2013-04-04 15:07:00,59.0,33.8,30.05,SSW,209,16.0,30.0,38,0.00,,---,0.00,VWS V14.00,2013-04-04 22:07:00,
2013-04-04 15:12:00,59.6,34.3,30.05,SSW,200,25.0,28.0,38,0.00,,---,0.00,VWS V14.00,2013-04-04 22:12:00,
2013-04-04 15:22:00,58.7,34.2,30.04,SSW,194,12.0,31.0,40,0.00,,---,0.00,VWS V14.00,2013-04-04 22:22:00,
2013-04-04 15:28:00,58.9,35.0,30.04,SSW,202,20.0,33.0,40,0.00,,---,0.00,VWS V14.00,2013-04-04 22:28:00,
2013-04-04 15:37:00,57.0,34.5,30.04,SSW,200,25.0,28.0,42,0.00,,---,0.00,VWS V14.00,2013-04-04 22:37:00,
2013-04-04 15:42:00,56.7,34.8,30.04,SSW,192,25.0,31.0,44,0.00,,---,0.00,VWS V14.00,2013-04-04 22:42:00,
2013-04-04 15:47:00,57.0,35.0,30.04,SW,215,15.0,27.0,44,0.00,,---,0.00,VWS V14.00,2013-04-04 22:47:00,
2013-04-04 15:57:00,56.8,34.8,30.04,SSW,200,22.0,30.0,44,0.00,,---,0.00,VWS V14.00,2013-04-04 22:57:00,
2013-04-04 16:07:00,56.0,34.7,30.04,SSW,193,16.0,28.0,44,0.00,,---,0.00,VWS V14.00,2013-04-04 23:07:00,
2013-04-04 16:12:00,56.0,34.7,30.04,SSW,210,21.0,29.0,44,0.00,,---,0.00,VWS V14.00,2013-04-04 23:12:00,
2013-04-04 16:17:00,55.6,35.4,30.05,SSW,200,22.0,30.0,46,0.00,,---,0.00,VWS V14.00,2013-04-04 23:17:00,
2013-04-04 16:27:00,56.7,34.2,30.05,SSW,200,15.0,31.0,42,0.00,,---,0.00,VWS V14.00,2013-04-04 23:27:00,
2013-04-04 16:32:00,57.0,32.6,30.05,SSW,207,19.0,25.0,40,0.00,,---,0.00,VWS V14.00,2013-04-04 23:32:00,
2013-04-04 16:37:00,57.3,32.9,30.05,SSW,212,20.0,29.0,40,0.00,,---,0.00,VWS V14.00,2013-04-04 23:37:00,
2013-04-04 16:42:00,57.3,31.6,30.05,SSW,197,20.0,30.0,38,0.00,,---,0.00,VWS V14.00,2013-04-04 23:42:00,
2013-04-04 16:52:00,57.6,31.2,30.05,SW,219,18.0,25.0,36,0.00,,---,0.00,VWS V14.00,2013-04-04 23:52:00,
2013-04-04 16:57:00,57.8,31.4,30.05,SW,223,11.0,25.0,36,0.00,,---,0.00,VWS V14.00,2013-04-04 23:57:00,
2013-04-04 17:02:00,57.6,32.5,30.05,SSW,198,18.0,24.0,38,0.00,,---,0.00,VWS V14.00,2013-04-05 00:02:00,
2013-04-04 17:12:00,55.8,34.0,30.05,SSW,208,15.0,25.0,44,0.00,,---,0.00,VWS V14.00,2013-04-05 00:12:00,
2013-04-04 17:17:00,55.6,33.8,30.05,South,191,20.0,22.0,44,0.00,,---,0.00,VWS V14.00,2013-04-05 00:17:00,
2013-04-04 17:27:00,55.2,34.0,30.05,SW,220,16.0,25.0,44,0.00,,---,0.00,VWS V14.00,2013-04-05 00:27:00,
2013-04-04 17:32:00,55.5,34.2,30.05,SSW,203,14.0,25.0,44,0.00,,---,0.00,VWS V14.00,2013-04-05 00:32:00,
2013-04-04 17:37:00,55.1,33.9,30.06,SSW,213,21.0,23.0,44,0.00,,---,0.00,VWS V14.00,2013-04-05 00:37:00,
2013-04-04 17:47:00,55.1,33.9,30.05,SSW,203,22.0,28.0,44,0.00,,---,0.00,VWS V14.00,2013-04-05 00:47:00,
2013-04-04 17:52:00,54.7,34.6,30.05,South,182,14.0,27.0,46,0.00,,---,0.00,VWS V14.00,2013-04-05 00:52:00,
2013-04-04 17:57:00,54.0,34.5,30.05,SSW,192,21.0,23.0,48,0.00,,---,0.00,VWS V14.00,2013-04-05 00:57:00,
2013-04-04 18:02:00,53.8,33.8,30.05,South,191,23.0,23.0,46,0.00,,---,0.00,VWS V14.00,2013-04-05 01:02:00,
2013-04-04 18:07:00,53.7,34.2,30.05,SSW,196,14.0,24.0,48,0.00,,---,0.00,VWS V14.00,2013-04-05 01:07:00,
2013-04-04 18:17:00,53.2,34.3,30.05,South,189,14.0,25.0,48,0.00,,---,0.00,VWS V14.00,2013-04-05 01:17:00,
2013-04-04 18:22:00,52.6,33.8,30.05,SSW,198,12.0,27.0,48,0.00,,---,0.00,VWS V14.00,2013-04-05 01:22:00,
2013-04-04 18:27:00,52.5,33.7,30.05,SSW,196,19.0,22.0,48,0.00,,---,0.00,VWS V14.00,2013-04-05 01:27:00,
2013-04-04 18:32:00,52.3,34.0,30.05,SSW,208,18.0,23.0,50,0.00,,---,0.00,VWS V14.00,2013-04-05 01:32:00,
2013-04-04 18:37:00,52.3,33.5,30.05,SSW,204,16.0,24.0,48,0.00,,---,0.00,VWS V14.00,2013-04-05 01:37:00,
2013-04-04 18:47:00,52.1,33.8,30.05,SSW,196,19.0,24.0,50,0.00,,---,0.00,VWS V14.00,2013-04-05 01:47:00,
2013-04-04 18:52:00,52.1,33.3,30.05,SSW,207,15.0,25.0,48,0.00,,---,0.00,VWS V14.00,2013-04-05 01:52:00,
2013-04-04 18:57:00,51.9,33.6,30.05,SSW,195,10.0,22.0,50,0.00,,---,0.00,VWS V14.00,2013-04-05 01:57:00,
2013-04-04 19:03:00,51.8,33.5,30.05,South,186,19.0,21.0,50,0.00,,---,0.00,VWS V14.00,2013-04-05 02:03:00,
2013-04-04 19:12:00,51.5,33.2,30.05,SSW,198,14.0,24.0,50,0.00,,---,0.00,VWS V14.00,2013-04-05 02:12:00,
2013-04-04 19:17:00,51.3,33.1,30.05,South,188,18.0,22.0,50,0.00,,---,0.00,VWS V14.00,2013-04-05 02:17:00,
2013-04-04 19:22:00,51.1,32.9,30.05,SSW,196,15.0,21.0,50,0.00,,---,0.00,VWS V14.00,2013-04-05 02:22:00,
2013-04-04 19:27:00,50.8,32.6,30.05,SSW,199,23.0,27.0,50,0.00,,---,0.00,VWS V14.00,2013-04-05 02:27:00,
2013-04-04 19:32:00,50.7,32.0,30.05,South,186,9.0,25.0,48,0.00,,---,0.00,VWS V14.00,2013-04-05 02:32:00,
2013-04-04 19:37:00,50.5,31.8,30.05,South,191,9.0,22.0,48,0.00,,---,0.00,VWS V14.00,2013-04-05 02:37:00,
2013-04-04 19:42:00,50.5,32.3,30.05,SSW,201,11.0,22.0,50,0.00,,---,0.00,VWS V14.00,2013-04-05 02:42:00,
2013-04-04 19:47:00,50.3,32.1,30.05,SSW,194,13.0,21.0,50,0.00,,---,0.00,VWS V14.00,2013-04-05 02:47:00,
2013-04-04 19:52:00,50.3,32.1,30.05,SSE,168,13.0,23.0,50,0.00,,---,0.00,VWS V14.00,2013-04-05 02:52:00,
2013-04-04 19:57:00,50.2,32.0,30.05,SSW,202,13.0,23.0,50,0.00,,---,0.00,VWS V14.00,2013-04-05 02:57:00,
2013-04-04 20:02:00,50.1,32.5,30.06,SSW,192,12.0,21.0,50,0.00,,---,0.00,VWS V14.00,2013-04-05 03:02:00,
2013-04-04 20:07:00,50.1,32.5,30.06,South,190,20.0,23.0,50,0.00,,---,0.00,VWS V14.00,2013-04-05 03:07:00,
2013-04-04 20:12:00,50.1,32.5,30.06,South,191,15.0,23.0,50,0.00,,---,0.00,VWS V14.00,2013-04-05 03:12:00,
2013-04-04 20:17:00,50.1,32.5,30.06,South,180,12.0,25.0,50,0.00,,---,0.00,VWS V14.00,2013-04-05 03:17:00,
2013-04-04 20:22:00,50.0,32.8,30.06,South,186,16.0,26.0,52,0.00,,---,0.00,VWS V14.00,2013-04-05 03:22:00,
2013-04-04 20:32:00,49.5,33.3,30.06,South,190,22.0,25.0,54,0.00,,---,0.00,VWS V14.00,2013-04-05 03:32:00,
2013-04-04 20:37:00,49.2,33.0,30.06,South,172,19.0,23.0,54,0.00,,---,0.00,VWS V14.00,2013-04-05 03:37:00,
2013-04-04 20:42:00,49.0,33.3,30.07,South,188,22.0,25.0,54,0.00,,---,0.00,VWS V14.00,2013-04-05 03:42:00,
2013-04-04 20:53:00,48.2,34.3,30.06,SSW,194,12.0,23.0,58,0.00,,---,0.00,VWS V14.00,2013-04-05 03:53:00,
2013-04-04 21:02:00,48.5,33.3,30.07,SSW,207,13.0,19.0,56,0.00,,---,0.00,VWS V14.00,2013-04-05 04:02:00,
2013-04-04 21:07:00,48.6,33.0,30.07,SSW,199,12.0,19.0,54,0.00,,---,0.00,VWS V14.00,2013-04-05 04:07:00,
2013-04-04 21:12:00,48.6,32.5,30.07,SSW,196,7.0,19.0,54,0.00,,---,0.00,VWS V14.00,2013-04-05 04:12:00,
2013-04-04 21:17:00,48.6,32.5,30.07,South,190,11.0,21.0,54,0.00,,---,0.00,VWS V14.00,2013-04-05 04:17:00,
2013-04-04 21:22:00,48.8,32.2,30.07,SSW,193,10.0,22.0,52,0.00,,---,0.00,VWS V14.00,2013-04-05 04:22:00,
2013-04-04 21:27:00,49.0,31.9,30.08,SSW,195,11.0,20.0,52,0.00,,---,0.00,VWS V14.00,2013-04-05 04:27:00,
2013-04-04 21:32:00,49.1,32.0,30.08,SSW,196,9.0,15.0,52,0.00,,---,0.00,VWS V14.00,2013-04-05 04:32:00,
2013-04-04 21:42:00,48.8,32.2,30.08,SSW,192,12.0,18.0,52,0.00,,---,0.00,VWS V14.00,2013-04-05 04:42:00,
2013-04-04 21:47:00,48.8,31.7,30.08,SSW,203,13.0,18.0,52,0.00,,---,0.00,VWS V14.00,2013-04-05 04:47:00,
2013-04-04 21:57:00,48.5,31.9,30.08,SSW,202,7.0,11.0,52,0.00,,---,0.00,VWS V14.00,2013-04-05 04:57:00,
2013-04-04 22:02:00,48.5,31.5,30.08,SSW,206,7.0,12.0,52,0.00,,---,0.00,VWS V14.00,2013-04-05 05:02:00,
2013-04-04 22:07:00,48.5,31.5,30.08,SW,215,8.0,13.0,52,0.00,,---,0.00,VWS V14.00,2013-04-05 05:07:00,
2013-04-04 22:12:00,48.3,30.8,30.08,SSW,205,9.0,12.0,50,0.00,,---,0.00,VWS V14.00,2013-04-05 05:12:00,
2013-04-04 22:17:00,48.2,30.7,30.08,SSW,195,10.0,15.0,50,0.00,,---,0.00,VWS V14.00,2013-04-05 05:17:00,
2013-04-04 22:22:00,48.2,30.7,30.08,SSW,192,9.0,14.0,50,0.00,,---,0.00,VWS V14.00,2013-04-05 05:22:00,
2013-04-04 22:27:00,48.1,30.6,30.08,South,189,9.0,14.0,50,0.00,,---,0.00,VWS V14.00,2013-04-05 05:27:00,
2013-04-04 22:32:00,48.1,30.1,30.08,South,191,8.0,15.0,50,0.00,,---,0.00,VWS V14.00,2013-04-05 05:32:00,
2013-04-04 22:37:00,48.0,30.0,30.09,South,182,12.0,15.0,50,0.00,,---,0.00,VWS V14.00,2013-04-05 05:37:00,
2013-04-04 22:42:00,48.1,29.6,30.09,South,187,11.0,16.0,48,0.00,,---,0.00,VWS V14.00,2013-04-05 05:42:00,
2013-04-04 22:47:00,48.2,29.2,30.09,South,180,8.0,18.0,48,0.00,,---,0.00,VWS V14.00,2013-04-05 05:47:00,
2013-04-04 22:52:00,48.1,29.1,30.09,South,178,12.0,18.0,48,0.00,,---,0.00,VWS V14.00,2013-04-05 05:52:00,
2013-04-04 22:57:00,47.9,28.9,30.09,South,180,12.0,12.0,48,0.00,,---,0.00,VWS V14.00,2013-04-05 05:57:00,
2013-04-04 23:02:00,48.0,29.0,30.09,South,185,9.0,18.0,48,0.00,,---,0.00,VWS V14.00,2013-04-05 06:02:00,
2013-04-04 23:07:00,47.8,28.3,30.09,South,183,10.0,14.0,46,0.00,,---,0.00,VWS V14.00,2013-04-05 06:07:00,
2013-04-04 23:12:00,47.6,28.1,30.09,South,181,11.0,15.0,46,0.00,,---,0.00,VWS V14.00,2013-04-05 06:12:00,
2013-04-04 23:17:00,47.4,27.9,30.10,South,180,8.0,13.0,46,0.00,,---,0.00,VWS V14.00,2013-04-05 06:17:00,
2013-04-04 23:27:00,46.6,27.7,30.10,South,185,8.0,12.0,48,0.00,,---,0.00,VWS V14.00,2013-04-05 06:27:00,
2013-04-04 23:32:00,46.4,27.5,30.10,South,186,8.0,13.0,48,0.00,,---,0.00,VWS V14.00,2013-04-05 06:32:00,
2013-04-04 23:37:00,46.4,27.5,30.10,South,180,7.0,14.0,48,0.00,,---,0.00,VWS V14.00,2013-04-05 06:37:00,
2013-04-04 23:42:00,46.5,27.6,30.10,South,184,11.0,18.0,48,0.00,,---,0.00,VWS V14.00,2013-04-05 06:42:00,
2013-04-04 23:47:00,46.5,28.1,30.10,South,191,11.0,15.0,48,0.00,,---,0.00,VWS V14.00,2013-04-05 06:47:00,
2013-04-04 23:52:00,46.5,28.1,30.10,SSW,192,7.0,15.0,48,0.00,,---,0.00,VWS V14.00,2013-04-05 06:52:00,
2013-04-04 23:57:00,46.4,28.0,30.10,SSW,194,9.0,16.0,48,0.00,,---,0.00,VWS V14.00,2013-04-05 06:57:00,